Wind_Speed
103 103 104 105 105 105 104 102 101 100 99 98 98 98 100 101 102 103 105 108 110 112 114 116 118 119 120 122 123 123 123 124 124 125 125 126 127 127 127 127 127 126 126 126 125 124 123 121 121 120 119 117 116 115 114 113 112 111 111 111 112 113 113 113 113 112 110 109 108 107 107 107 106 104 103 103 103 103 104 105 105 105 104 104 104
104 104 104 104 104 103 102 101 99 99 98 97 97 97 98 99 100 100 101 103 105 107 109 112 114 117 118 120 121 122 122 123 123 123 124 124 125 126 127 128 128 128 128 128 128 128 127 126 125 125 124 123 121 121 120 118 117 116 115 116 117 118 118 117 117 116 114 113 113 112 112 110 109 108 107 107 107 108 108 109 109 108 107 107 107
105 105 105 104 103 102 101 101 100 100 99 99 99 98 98 99 99 100 100 101 102 104 105 107 109 112 115 117 119 121 121 122 122 122 122 123 123 123 124 125 126 127 128 128 129 129 129 129 128 128 128 127 126 126 126 124 123 121 120 121 122 123 123 122 121 120 118 117 117 117 116 115 113 112 112 111 112 112 112 113 112 111 111 110 111
107 107 106 105 105 104 103 104 104 104 103 102 102 101 101 101 101 101 101 101 102 103 105 106 107 109 111 114 116 118 120 121 121 121 121 122 122 122 122 123 124 125 126 127 127 128 129 129 129 129 129 129 129 129 130 129 128 126 126 126 127 127 127 126 125 124 123 122 121 121 120 119 118 117 117 117 116 116 116 115 115 115 114 114 114
109 109 108 107 107 107 106 108 108 108 107 106 105 103 103 102 102 102 102 102 103 104 105 106 107 108 110 111 113 116 118 119 120 120 120 120 121 122 122 122 123 123 124 125 125 126 127 127 128 128 128 128 129 130 131 131 131 130 130 130 131 131 131 129 128 127 126 125 125 124 123 123 123 122 121 121 120 120 119 118 118 118 118 117 117
108 107 106 105 106 106 106 108 109 108 107 106 106 105 105 104 103 103 103 103 103 103 104 106 107 107 108 110 112 113 115 117 118 119 120 119 119 120 121 122 122 122 123 124 124 125 125 126 126 127 127 126 127 128 130 130 131 131 131 132 132 133 133 131 130 129 129 128 127 127 127 127 126 125 124 124 123 122 121 120 121 121 121 120 120
104 103 102 102 103 103 104 105 107 107 106 105 105 104 104 104 104 102 102 102 102 102 102 104 105 105 106 108 110 111 113 114 116 118 119 118 118 119 119 120 121 121 122 123 123 124 124 125 126 126 126 126 126 127 128 129 129 130 130 131 132 133 132 131 130 130 130 130 129 129 129 129 129 128 127 126 125 125 124 123 123 124 124 123 122
99 98 97 98 99 100 101 103 105 107 106 106 106 105 103 103 103 102 101 100 100 101 100 100 101 102 104 106 108 109 110 112 113 115 117 117 117 117 118 119 119 119 120 121 122 123 123 124 125 126 126 126 126 126 127 128 128 129 129 129 130 130 130 130 129 129 129 130 130 130 130 130 130 129 128 127 126 126 126 126 125 125 125 124 124
92 91 90 91 93 95 97 100 102 104 105 106 106 106 105 104 103 102 102 101 100 99 97 97 97 98 100 103 105 106 107 109 110 112 113 114 115 115 116 116 117 117 118 119 120 121 122 123 123 124 125 126 126 126 126 127 128 129 128 128 128 128 128 128 127 126 126 127 129 130 130 130 130 130 129 128 128 128 127 127 127 126 125 124 124
84 85 86 88 91 93 97 99 99 99 101 104 105 105 105 104 104 103 103 101 100 98 96 94 94 95 96 98 100 101 102 104 105 107 108 110 111 112 113 113 114 115 116 117 118 119 120 121 121 122 124 125 126 126 126 127 128 129 128 128 127 126 125 125 125 125 124 125 127 127 127 127 128 128 129 128 128 128 126 126 125 125 124 124 123
81 82 84 88 92 94 97 98 98 96 98 100 102 102 103 102 102 103 102 101 100 98 97 96 96 95 94 94 95 96 96 97 98 99 101 104 106 107 108 110 111 112 113 114 116 117 118 118 119 120 121 123 124 125 125 126 127 128 128 127 125 124 123 122 123 124 124 124 125 125 125 125 125 125 126 126 126 125 124 123 122 122 122 123 122
79 81 84 87 91 94 95 95 96 97 97 97 97 98 99 99 99 99 99 100 99 97 96 96 97 96 94 93 92 92 91 91 92 93 94 96 98 101 103 104 106 108 110 112 113 114 115 116 117 118 119 120 122 123 123 124 125 126 127 125 123 122 121 119 120 122 123 123 123 123 124 124 124 124 124 124 124 123 123 122 121 119 119 120 121
78 81 83 84 86 88 89 90 92 93 93 93 93 94 94 95 95 94 94 94 93 92 91 90 91 92 92 91 89 88 87 86 87 89 90 90 91 94 97 98 100 102 105 108 110 111 112 113 115 116 117 118 119 120 121 122 123 124 125 125 122 119 118 117 117 118 121 121 120 121 123 124 123 123 123 123 122 122 121 121 120 118 117 118 118
81 83 83 82 82 83 84 84 84 85 85 85 85 86 87 88 90 89 89 88 87 86 84 83 83 84 85 86 86 85 83 82 82 84 86 87 88 89 91 93 94 96 99 103 105 107 108 110 112 114 115 116 117 118 119 121 121 122 123 123 122 119 117 115 115 116 118 119 118 117 119 121 122 122 122 121 120 120 120 119 119 118 117 116 115
82 84 83 83 83 83 81 80 79 78 76 76 77 78 78 79 81 81 81 80 80 79 78 78 78 78 79 79 80 81 80 79 78 79 81 83 84 86 87 89 91 92 93 97 100 102 102 105 109 111 113 114 116 117 118 119 120 121 121 121 121 119 117 115 114 115 116 117 117 116 116 118 119 120 120 119 118 118 118 118 117 117 116 115 114
78 78 78 80 81 81 79 76 74 72 70 70 71 71 72 72 72 72 73 73 72 72 72 72 72 73 74 74 75 76 76 76 76 76 76 78 79 81 83 85 87 88 89 91 94 96 97 99 102 106 109 111 113 115 116 117 118 119 119 119 119 119 117 115 114 114 115 116 116 116 115 115 115 117 118 117 116 116 116 116 116 116 115 115 114
72 73 73 74 76 76 75 72 69 67 66 66 66 66 65 66 65 66 66 66 66 66 66 66 67 67 68 69 70 71 72 72 73 74 74 75 74 75 77 80 83 85 85 86 88 90 92 94 96 99 103 106 109 111 113 114 115 116 116 117 117 117 117 115 114 114 114 115 116 116 115 113 113 115 116 116 115 115 115 115 115 116 115 115 114
70 70 70 70 71 70 69 67 65 64 63 62 62 62 61 61 61 61 61 61 60 61 61 62 62 62 63 65 66 67 68 69 70 71 72 73 72 71 72 74 77 80 81 82 83 85 87 89 92 94 98 101 104 107 109 110 112 113 113 114 115 115 116 115 114 113 113 114 115 116 115 113 112 113 115 116 115 115 115 115 115 116 116 115 114
68 67 68 68 68 66 64 63 61 60 60 59 60 59 59 58 58 58 59 58 57 57 58 58 58 59 60 61 62 63 65 65 67 68 70 72 72 70 69 70 72 75 77 80 81 82 83 84 86 88 91 94 97 100 103 105 107 109 110 111 112 114 114 114 113 113 112 113 114 115 114 112 112 113 114 115 115 115 115 115 116 116 116 116 115
66 66 66 66 67 65 62 60 60 59 58 58 58 58 57 56 56 56 56 56 56 55 55 55 56 57 58 59 59 60 62 63 64 65 66 69 70 69 68 67 69 71 73 76 78 80 80 81 81 83 85 88 90 94 97 100 102 104 106 108 110 112 113 113 113 112 112 112 113 113 113 112 111 112 113 114 114 115 116 116 116 116 116 116 116
67 67 66 66 67 66 63 61 59 58 57 56 55 55 55 55 54 54 54 54 54 54 54 54 54 54 55 56 57 57 58 59 61 62 63 65 67 67 67 67 67 68 70 72 74 76 78 79 79 80 82 84 85 88 91 93 96 98 100 103 106 108 110 111 111 111 110 110 111 111 111 111 111 111 112 113 113 114 115 116 116 116 116 116 116
66 66 65 64 65 65 64 62 59 57 55 53 53 52 53 53 52 52 52 53 53 53 53 53 53 53 53 53 53 54 55 56 57 58 59 60 62 64 65 66 66 67 68 69 70 72 74 75 76 77 79 81 82 83 85 87 89 91 93 95 97 99 102 104 105 106 106 106 108 109 109 109 109 110 111 111 111 112 114 115 115 115 115 115 116
63 64 63 62 62 63 63 61 59 57 54 53 52 51 50 51 50 49 50 50 50 51 51 51 51 52 51 51 51 52 53 53 54 55 56 57 58 60 62 63 64 65 66 67 68 69 70 71 73 74 76 77 79 79 81 82 84 85 87 88 89 91 92 94 95 96 97 99 101 103 103 104 106 107 108 108 108 110 112 114 114 113 113 114 116
59 59 59 59 59 60 60 59 57 55 53 52 51 51 50 49 48 47 47 47 48 48 50 50 50 50 50 50 50 50 51 51 52 53 53 54 55 56 58 59 60 62 62 64 65 66 67 68 70 71 73 74 75 76 77 78 79 81 82 83 84 85 86 87 88 89 90 92 95 96 97 98 100 102 104 104 104 106 108 110 111 110 111 112 114
55 55 55 56 56 56 56 56 54 53 51 50 50 50 50 49 47 46 45 45 46 46 48 49 48 48 49 49 49 49 49 50 50 51 51 52 52 53 54 55 57 58 59 60 61 63 64 65 66 67 69 70 72 73 73 74 75 76 78 79 80 80 81 82 83 84 86 88 91 92 92 94 95 97 98 99 100 101 104 106 106 107 108 109 111
51 51 51 52 52 53 52 52 51 50 48 47 47 48 49 49 47 45 44 44 43 43 44 45 45 45 46 46 46 47 47 47 48 49 49 50 51 51 52 52 53 55 56 57 58 59 60 62 63 64 65 67 68 68 69 70 71 72 74 75 74 74 75 76 77 79 81 84 87 88 89 91 92 93 94 96 97 99 101 102 102 103 104 105 106
48 47 48 48 49 49 49 49 49 47 45 44 44 45 47 47 46 44 42 41 40 40 40 41 42 42 43 43 43 43 43 44 45 46 47 48 49 49 49 49 50 51 53 54 55 56 57 58 60 61 62 64 64 64 65 66 67 68 69 70 69 68 69 70 71 73 76 79 81 83 85 86 88 89 90 94 96 97 98 99 99 99 99 99 99
48 47 47 47 47 47 47 47 47 45 44 42 42 43 43 44 44 42 40 38 37 37 38 38 39 40 41 41 41 41 41 41 42 43 44 45 46 46 46 46 47 47 48 50 51 52 53 54 56 57 59 60 60 60 62 63 64 65 65 65 65 65 66 66 67 69 71 74 75 77 79 80 83 84 86 89 91 92 94 95 94 93 92 92 92
50 49 48 48 48 48 48 48 47 46 45 43 42 41 41 40 39 39 38 37 36 36 36 36 37 38 39 39 39 40 40 40 41 42 43 43 44 44 44 44 44 44 45 46 47 48 50 51 52 54 55 55 55 57 60 61 61 61 62 61 62 63 64 65 66 67 69 71 72 72 73 75 77 78 80 83 85 87 88 89 88 86 85 85 85
48 48 48 48 48 47 47 47 47 46 45 44 42 41 39 38 36 35 35 35 36 37 36 36 36 36 37 37 37 38 38 39 40 41 42 43 43 43 43 43 44 44 45 45 45 46 48 49 50 50 50 50 51 54 56 57 57 58 59 59 60 61 63 63 64 65 67 69 70 70 71 72 74 74 74 76 79 81 83 83 83 80 79 79 80
46 46 46 46 46 45 44 43 43 43 43 42 41 39 37 36 35 34 34 33 34 36 36 36 35 35 35 35 36 36 37 37 38 39 40 41 41 41 42 42 43 44 45 44 44 45 47 47 47 46 46 46 48 51 53 53 54 54 55 56 57 59 61 62 62 63 65 68 69 69 69 70 70 70 70 71 74 77 79 79 78 76 75 76 77
45 45 45 44 44 43 42 41 40 39 39 39 38 37 36 35 34 34 33 33 33 34 34 34 34 34 34 34 35 35 36 37 37 37 37 38 39 40 41 42 42 43 43 43 43 45 45 45 45 45 44 45 46 47 48 49 50 51 51 52 54 56 58 59 61 62 63 66 66 66 67 68 68 67 67 67 69 72 74 75 75 74 73 73 74
45 44 44 44 43 42 41 40 39 38 37 36 35 35 35 34 34 34 33 33 33 33 33 32 32 33 33 33 34 34 35 36 36 36 36 37 38 39 40 41 40 40 40 41 42 43 43 43 43 44 44 44 44 45 45 44 45 47 47 48 49 51 54 56 58 59 61 62 63 64 65 65 65 65 64 65 67 69 71 72 73 73 71 71 72
45 44 44 45 44 43 41 40 40 39 38 36 35 35 34 33 33 35 34 33 33 33 32 31 32 32 32 32 33 34 35 35 34 34 35 35 36 37 38 38 38 38 38 39 40 40 41 41 41 41 41 41 42 43 41 41 42 43 43 43 44 47 50 52 54 56 57 59 61 62 62 62 62 62 62 63 65 68 69 70 71 71 70 69 70
46 45 45 45 45 44 43 42 40 39 38 37 35 34 34 33 32 33 34 34 33 33 32 32 32 32 32 32 33 33 34 33 33 33 34 35 35 35 35 35 35 36 36 37 37 37 38 38 37 37 38 38 39 38 37 38 40 41 41 41 41 44 48 51 51 53 55 58 60 60 59 59 60 60 61 63 65 67 67 67 68 68 67 67 67
45 44 43 43 43 43 43 43 42 40 38 37 35 34 33 33 32 32 32 32 32 32 32 33 33 32 32 32 32 32 32 32 32 33 33 33 32 32 32 33 33 34 34 34 34 35 35 35 34 34 35 36 36 35 34 36 39 38 39 40 41 43 48 50 49 51 55 57 58 58 58 57 58 59 61 63 64 65 65 65 65 65 64 63 64
45 44 43 42 40 40 40 40 40 39 37 37 36 34 33 33 32 32 32 31 30 30 30 31 32 32 32 31 31 31 30 31 32 32 31 31 31 31 31 31 32 32 32 32 32 33 33 33 32 32 32 33 33 32 33 35 36 35 36 38 41 44 48 49 49 51 54 55 54 56 56 56 57 59 60 62 62 62 62 62 62 62 61 61 62
44 44 43 42 40 38 37 37 37 38 36 35 34 33 33 33 32 32 32 31 30 29 29 28 29 29 30 30 31 31 31 30 30 30 30 30 30 30 30 30 30 30 30 30 31 31 31 31 31 30 30 30 31 31 32 33 33 34 35 37 41 45 48 48 49 50 52 51 51 53 54 55 57 59 59 60 59 59 59 59 59 59 59 59 60
46 44 43 41 39 37 36 35 35 36 36 35 33 32 31 32 32 31 31 31 30 29 28 27 27 27 29 30 31 31 31 30 30 29 30 30 30 29 29 29 29 28 28 29 29 29 29 28 29 29 28 28 29 29 30 31 32 33 35 38 42 45 46 47 48 49 49 49 48 50 52 54 57 58 57 57 57 56 57 58 58 58 58 59 59
50 48 45 43 39 37 36 35 35 36 37 36 35 33 31 31 31 31 30 30 29 28 27 27 27 27 28 29 30 30 30 30 30 29 29 29 28 28 27 27 27 27 27 27 27 27 27 27 27 27 27 26 27 28 28 29 29 31 33 37 40 42 43 44 45 46 46 46 46 48 51 53 55 54 54 54 55 56 57 57 57 56 57 58 57
52 49 47 45 43 39 35 34 34 35 36 36 36 34 32 31 31 30 29 28 27 26 27 27 28 28 27 27 27 28 28 29 29 29 28 27 26 25 25 25 25 26 26 26 26 26 27 26 26 26 26 25 25 26 26 26 27 29 32 34 36 37 38 40 42 44 44 44 45 46 49 50 50 50 50 51 54 55 55 54 54 54 55 54 52
54 51 49 47 45 41 37 34 32 32 33 34 34 34 32 31 30 30 29 28 27 26 26 27 27 27 26 25 25 25 26 27 27 27 26 25 25 24 24 25 25 26 26 26 26 26 26 26 25 25 24 24 24 24 24 25 25 27 28 29 30 31 34 36 39 41 42 42 42 44 46 47 48 48 48 50 52 53 52 50 51 51 50 49 48
54 52 50 49 47 44 41 38 36 34 34 34 34 34 32 31 30 30 29 29 28 27 26 26 26 25 24 24 24 24 25 25 25 24 24 24 23 23 24 24 25 25 25 25 25 25 24 24 23 23 23 23 23 23 23 24 24 25 25 26 26 28 30 33 35 37 39 40 41 43 46 47 47 47 47 49 50 50 49 49 48 47 47 47 47
54 52 50 49 47 45 43 41 39 37 36 35 34 34 32 31 30 29 28 29 28 27 26 25 24 24 23 23 23 24 24 24 24 23 23 22 22 22 23 24 23 23 23 23 23 22 22 21 21 21 21 21 22 22 22 23 23 23 23 24 24 25 27 30 32 35 37 39 41 43 45 46 46 46 46 47 48 48 46 46 45 45 45 45 44
53 51 49 48 47 46 44 43 40 38 36 35 34 33 31 30 29 28 28 28 28 26 25 24 23 23 22 23 23 24 24 24 23 22 21 21 21 21 21 21 21 20 20 20 19 19 19 19 19 19 19 20 20 21 21 22 22 22 22 22 23 23 25 27 30 33 35 38 40 42 43 44 44 44 44 45 45 44 42 42 42 41 41 41 42
54 52 50 49 48 46 45 44 42 40 37 35 34 33 31 30 29 28 28 28 27 26 24 23 22 22 22 22 23 23 23 22 22 21 20 19 19 19 19 19 18 18 17 17 17 17 17 17 18 18 18 18 19 19 20 20 20 21 21 21 22 22 23 25 27 29 32 34 35 37 38 38 38 39 40 41 39 38 36 36 36 37 39 41 44
54 52 50 49 47 47 46 45 43 40 38 36 35 34 32 31 30 29 29 28 26 25 24 23 22 22 22 22 22 22 21 21 20 20 19 18 17 17 17 17 17 16 16 15 15 15 15 15 15 16 16 17 17 17 18 18 18 18 19 19 20 21 22 24 25 27 28 29 29 30 31 31 32 33 34 33 32 31 32 33 35 38 41 42 42
54 52 51 49 47 46 46 45 43 41 39 38 36 35 33 32 31 29 29 27 25 24 24 23 22 22 21 21 21 20 20 19 18 18 17 17 16 16 16 16 16 15 15 14 13 13 13 12 13 13 13 14 14 15 15 15 16 16 16 17 17 18 20 21 23 24 24 25 25 26 26 26 27 28 29 29 29 31 33 34 36 37 37 37 37
53 51 50 49 47 46 45 44 43 42 40 39 37 35 34 32 31 29 27 25 24 24 24 23 22 21 21 20 19 19 18 17 17 16 16 16 15 15 15 15 15 14 13 12 11 11 11 11 11 11 11 11 11 11 12 12 13 13 13 14 15 16 17 18 19 21 21 22 23 23 24 24 25 26 27 28 29 31 31 32 32 33 33 34 34
55 53 51 50 48 47 46 44 43 41 40 39 37 35 34 32 30 27 25 24 24 24 23 22 22 21 20 19 18 18 17 16 16 15 15 15 15 14 14 14 14 12 11 11 11 11 11 11 10 10 9 9 8 8 9 9 9 10 11 11 12 13 14 15 16 18 19 20 20 21 21 22 23 24 25 26 27 27 28 29 30 31 32 32 33
56 54 52 52 50 48 47 46 43 41 39 37 36 34 32 30 28 26 25 24 24 23 23 22 21 21 20 19 18 17 16 15 15 15 15 14 14 14 14 13 12 11 10 10 10 10 11 10 9 8 7 6 6 6 6 6 7 8 8 9 10 11 11 12 13 14 16 17 17 18 19 20 21 22 22 23 24 25 27 28 29 30 30 31 32
Wind_Direction
281 280 279 279 278 277 276 276 275 275 274 273 272 271 269 268 266 264 263 262 262 261 260 260 259 259 258 258 258 257 257 257 257 257 256 257 257 257 258 258 259 259 259 260 260 260 260 259 259 259 259 258 258 258 257 256 256 255 255 256 256 256 256 256 255 255 255 255 255 255 254 254 254 254 254 254 254 254 254 254 253 253 253 253 253
281 281 280 280 280 280 280 280 280 280 279 278 276 275 273 271 269 267 265 263 262 261 260 259 259 259 259 258 258 257 256 256 256 256 255 255 255 255 256 256 257 257 258 258 258 259 259 259 258 259 259 258 258 258 257 257 256 256 255 255 256 256 256 256 256 256 256 256 256 256 256 255 255 255 255 255 255 255 255 255 254 254 254 254 254
283 283 283 283 284 284 284 284 284 283 282 281 279 277 275 273 270 268 265 263 262 260 259 258 257 257 257 258 257 257 256 255 255 254 254 254 254 254 253 254 254 255 256 256 256 257 257 257 257 257 257 257 257 257 257 257 256 256 255 255 255 255 256 256 256 256 256 256 256 257 257 257 256 256 256 256 256 256 255 256 256 255 255 255 255
285 286 286 286 287 287 288 287 286 285 283 281 279 277 275 273 270 267 265 263 261 259 258 257 255 255 255 255 255 256 256 255 254 254 253 253 253 253 252 252 252 252 253 254 254 255 255 256 256 256 256 256 256 256 256 256 256 255 255 255 255 255 255 255 256 256 256 256 256 257 257 257 257 257 257 256 256 256 256 256 256 256 256 256 256
287 287 287 288 288 288 288 287 286 285 283 281 279 277 274 272 269 267 265 262 260 259 258 257 255 254 253 253 253 254 254 255 254 254 253 252 252 252 252 251 251 251 251 252 252 253 253 254 254 254 254 255 255 255 255 255 255 255 254 254 254 255 255 255 255 256 256 256 256 257 257 257 257 257 256 256 256 256 256 256 257 257 257 256 256
287 287 288 288 288 288 287 286 284 283 281 280 278 276 274 271 269 267 265 263 261 260 259 258 257 256 255 254 253 252 253 253 254 254 253 253 252 252 252 251 251 251 251 251 251 251 252 252 253 253 253 253 253 254 254 254 254 254 254 253 253 254 254 254 255 255 256 256 256 256 257 257 257 256 256 257 257 256 256 256 257 257 257 257 257
288 289 290 289 288 287 286 284 283 281 280 278 276 274 273 272 271 269 268 266 264 263 261 260 260 259 258 256 255 254 253 253 253 254 254 253 252 252 252 252 251 251 251 251 250 250 251 251 252 252 252 252 252 252 253 253 253 253 253 253 253 253 253 254 254 254 255 256 256 256 256 256 256 256 256 256 257 257 257 257 257 257 257 257 257
290 290 289 287 285 284 282 281 280 279 278 278 277 276 275 275 274 273 272 270 269 267 265 264 262 261 261 259 258 256 255 254 254 253 253 253 253 252 252 252 251 251 251 250 251 250 250 251 251 252 252 252 252 252 252 253 253 252 252 252 252 253 253 253 253 254 254 255 255 255 256 256 256 257 257 257 257 257 258 258 257 257 257 257 258
290 288 286 284 282 280 278 277 276 277 277 278 277 277 277 277 276 275 274 273 272 271 269 267 266 264 263 262 260 258 257 256 255 254 254 254 253 252 252 251 251 251 251 250 250 250 250 251 251 251 252 252 252 252 252 252 253 253 253 252 252 252 253 253 254 254 254 254 254 255 255 255 256 256 257 257 257 257 257 257 257 257 257 257 258
291 289 287 285 282 279 278 276 276 276 276 276 276 276 276 276 276 276 275 274 274 274 273 272 271 269 267 265 263 262 260 258 257 256 255 255 254 254 253 252 251 251 251 250 250 250 250 250 250 251 251 252 252 252 252 252 253 253 253 253 252 252 252 253 254 254 254 254 254 254 255 255 255 256 256 256 256 256 256 256 257 258 258 258 257
294 291 287 285 282 281 280 279 279 277 276 275 276 276 276 276 276 276 276 276 276 275 275 274 273 272 270 268 266 265 263 261 260 258 257 256 255 255 254 253 252 251 251 250 250 250 250 249 249 249 250 251 252 252 252 253 253 253 253 253 253 253 252 252 253 253 253 253 254 255 255 255 255 255 255 256 256 256 256 256 256 257 258 258 257
293 288 284 282 281 280 281 281 280 280 279 279 278 278 278 277 277 276 276 276 276 275 274 273 272 272 271 269 267 266 264 263 262 261 259 257 256 255 254 253 253 252 251 250 250 249 250 250 249 249 249 250 250 251 252 252 253 254 254 254 253 253 252 252 251 252 252 252 252 253 254 255 255 256 256 256 257 257 257 257 256 256 257 257 258
289 285 282 280 280 279 279 279 279 279 279 280 280 280 280 280 280 279 278 277 276 275 274 272 271 271 271 270 269 267 265 264 263 262 261 259 257 256 255 254 253 252 252 251 250 249 248 249 249 249 249 249 249 250 251 252 252 253 254 255 255 254 253 252 251 251 251 251 251 251 252 254 254 255 255 256 256 257 257 257 257 257 256 256 257
292 289 289 288 286 284 282 282 282 281 281 280 280 280 280 280 280 280 279 278 277 276 275 274 272 271 270 269 269 268 267 265 263 261 261 260 259 258 257 256 254 253 252 252 251 250 248 247 248 249 249 249 249 250 250 251 252 253 254 255 255 255 254 253 252 251 251 252 251 250 251 252 253 254 254 255 255 256 257 257 257 257 256 256 255
294 293 293 293 291 289 288 288 287 286 285 283 282 281 281 280 279 279 278 277 277 276 275 274 272 271 270 269 268 268 268 267 265 262 260 259 258 258 257 256 255 254 252 251 251 250 248 248 247 248 248 249 250 250 250 250 251 252 253 254 255 256 255 254 253 252 252 252 252 251 250 251 252 253 254 254 254 255 255 256 256 256 256 255 254
293 293 294 293 292 292 292 292 291 290 289 287 286 284 283 281 280 279 278 278 277 276 274 273 272 271 270 269 268 268 267 267 266 264 262 259 258 257 256 255 255 254 253 251 251 250 248 247 247 247 248 248 249 250 251 251 251 252 253 253 254 255 255 255 254 253 253 252 252 252 251 250 251 252 253 253 253 254 254 255 255 255 255 255 254
297 296 295 293 293 293 294 294 294 293 292 290 289 287 285 284 283 281 280 279 277 276 275 273 272 271 270 269 268 268 268 267 267 266 264 262 260 258 256 256 255 255 255 253 252 251 249 247 246 246 247 248 248 249 250 251 252 253 253 253 254 254 255 254 254 253 253 252 252 252 251 250 249 250 251 252 252 252 253 254 254 255 255 255 255
302 300 298 296 295 295 295 294 294 294 294 292 290 289 287 286 284 283 282 280 278 276 275 273 272 271 270 269 268 268 267 267 267 266 266 265 263 260 258 256 256 255 256 255 254 252 251 248 247 246 246 247 248 249 250 250 251 252 253 254 254 254 254 254 253 253 252 252 252 252 252 251 250 249 250 251 251 251 252 252 253 254 254 255 255
305 303 302 300 299 298 298 297 297 297 296 294 292 291 289 287 286 284 283 282 280 277 275 274 273 272 270 269 268 268 267 266 265 265 265 265 264 262 259 257 255 255 255 255 255 254 252 251 249 248 247 247 247 249 249 250 250 251 252 252 253 254 254 254 253 253 252 252 252 252 252 251 250 249 249 250 250 251 251 251 251 252 254 254 254
308 307 305 304 303 302 302 301 301 300 299 297 294 292 291 289 287 285 284 283 281 279 276 274 273 272 271 270 269 268 267 266 265 264 264 264 264 263 261 258 256 255 254 254 254 254 254 253 252 250 249 248 248 248 249 249 250 250 250 251 251 252 253 253 253 253 252 252 252 252 252 251 251 250 250 250 250 250 250 250 250 251 252 253 254
312 310 309 308 306 305 305 303 302 301 299 297 294 292 291 289 288 286 285 283 282 280 278 276 275 273 272 272 271 270 268 267 266 265 264 263 263 263 262 260 258 256 254 254 253 254 254 254 253 252 251 250 249 248 248 249 249 249 250 250 250 250 251 252 252 253 252 252 252 252 252 252 251 251 250 250 250 250 250 250 250 250 251 252 253
312 310 310 308 307 306 305 304 304 302 300 298 295 293 291 289 288 287 285 284 283 282 280 279 277 276 274 273 272 270 269 267 266 265 264 263 263 263 262 261 260 258 256 255 254 254 254 254 254 253 253 253 252 251 250 250 250 250 250 251 251 251 251 251 251 252 252 252 252 251 251 251 251 251 251 250 250 250 250 250 250 250 250 251 251
310 309 308 307 306 306 305 305 305 304 302 300 297 294 292 290 288 287 285 284 284 283 282 280 278 277 275 274 272 271 269 268 267 265 264 263 262 262 262 262 261 260 259 258 257 256 254 254 253 253 253 253 253 252 252 251 251 251 251 251 251 251 251 251 251 251 251 251 251 251 250 250 250 250 250 250 250 250 251 251 251 251 250 251 251
309 308 308 307 306 306 305 305 305 305 303 302 300 297 295 293 291 289 287 286 284 283 282 280 279 278 276 274 272 271 269 268 267 266 264 263 262 261 261 261 261 261 260 260 259 258 257 256 254 254 253 253 253 253 253 252 252 251 251 251 251 250 250 250 249 249 249 249 249 249 249 249 249 249 250 250 250 250 251 251 251 251 251 251 251
311 309 308 307 306 306 306 305 305 305 304 303 301 299 298 296 295 293 291 289 287 285 283 282 280 279 277 275 272 271 269 267 266 265 264 263 261 260 259 259 260 260 260 260 259 259 258 258 257 256 255 255 254 254 253 253 253 253 253 252 251 251 250 250 250 249 248 248 248 248 247 247 247 248 249 249 249 249 250 251 251 251 251 251 251
312 311 310 308 307 307 306 306 306 305 305 304 302 300 299 299 298 297 295 293 290 288 286 284 282 280 278 276 273 271 269 267 266 265 264 263 261 260 258 258 258 258 258 259 258 258 258 258 258 258 257 257 256 255 254 254 254 253 253 253 252 252 251 250 250 249 249 248 248 248 247 246 246 247 248 248 249 249 249 250 250 251 252 252 252
316 315 314 312 311 310 309 308 307 307 307 306 304 303 302 302 301 300 299 296 293 289 287 285 284 282 280 277 274 271 269 267 266 265 264 263 262 261 260 259 258 258 257 258 258 258 258 258 258 257 257 257 257 257 257 256 255 254 254 254 253 253 252 251 250 250 249 249 248 248 247 247 246 246 246 247 248 249 250 250 250 250 251 252 252
322 321 319 317 316 314 313 311 310 310 310 308 307 305 304 304 303 303 301 297 293 290 287 285 283 281 279 278 276 273 271 269 267 265 264 264 263 262 262 261 259 258 258 258 259 259 259 259 259 258 258 258 258 259 258 257 256 256 255 255 254 254 253 252 251 251 251 250 249 249 248 247 247 246 246 246 248 249 250 250 250 250 250 251 252
326 325 323 322 320 318 318 317 316 315 314 312 310 308 306 305 304 303 302 299 295 291 288 285 283 281 279 278 276 274 273 271 270 268 267 266 266 265 264 263 262 261 261 260 260 260 261 260 260 260 260 261 261 260 260 259 258 257 257 256 255 254 253 253 252 252 252 252 251 250 249 248 247 246 245 246 247 248 249 250 251 250 250 251 251
327 327 325 324 322 321 320 319 318 317 316 315 313 311 309 307 305 304 302 300 297 293 290 287 285 283 282 279 277 274 272 271 271 270 271 271 270 270 269 268 267 265 264 263 262 262 262 261 261 261 261 261 261 260 259 259 258 258 257 256 255 255 254 253 252 252 252 252 251 250 250 249 248 246 245 246 247 248 249 249 250 250 250 250 250
329 329 327 325 323 321 319 318 317 316 315 315 314 313 312 310 307 305 302 299 297 295 293 291 289 288 285 282 280 277 274 272 270 269 270 271 271 271 270 269 268 268 267 267 266 265 264 263 263 262 261 259 258 257 256 256 256 255 254 254 253 253 253 252 251 250 250 250 250 250 249 249 248 247 245 245 245 247 248 249 249 249 249 249 249
333 332 330 327 324 322 320 318 317 316 315 315 315 314 313 311 308 305 302 299 296 295 294 293 293 291 288 285 282 280 277 274 272 271 270 269 269 269 268 268 267 268 269 269 268 267 266 265 265 264 262 259 257 255 253 253 253 252 251 250 249 249 249 250 249 248 248 248 249 249 248 248 248 247 246 244 244 245 246 247 248 248 247 248 248
335 334 332 329 327 325 323 321 320 319 318 317 317 315 314 313 309 306 303 300 297 296 295 294 293 291 289 287 285 282 280 278 277 277 275 272 271 270 270 270 270 270 270 269 268 267 266 265 264 263 262 261 259 258 256 254 252 251 250 248 248 248 247 247 247 247 247 248 248 247 247 247 247 246 245 244 244 244 245 246 247 247 247 247 247
337 335 334 332 330 327 326 325 323 323 322 321 320 317 316 314 311 308 306 303 301 298 296 294 291 290 289 287 284 283 282 282 282 281 279 276 274 273 272 273 273 272 270 268 267 267 266 265 264 264 263 262 261 261 260 259 256 254 251 248 246 246 247 245 245 246 247 247 247 247 246 246 246 245 244 244 243 243 243 244 245 245 246 246 246
339 338 336 334 332 329 328 327 326 325 325 323 321 319 316 314 312 309 307 306 304 301 298 294 291 289 288 286 285 284 284 285 284 282 279 277 276 275 275 274 273 271 269 268 268 267 267 267 267 266 266 264 262 261 261 260 258 256 253 250 245 244 246 245 243 243 244 245 246 247 246 246 245 244 243 242 242 242 242 242 243 244 245 246 247
340 339 339 337 334 331 329 328 327 327 325 323 321 319 317 315 313 310 308 306 304 301 299 296 295 293 292 290 289 288 287 287 285 283 281 281 281 280 278 276 274 273 272 272 271 271 271 270 269 268 267 266 263 262 260 258 257 255 253 250 247 245 245 244 242 241 242 242 243 245 246 245 244 243 242 242 241 242 242 242 243 244 245 246 247
342 341 340 339 335 331 329 328 326 325 324 322 321 320 319 317 316 313 310 307 304 301 298 298 298 298 297 295 293 291 289 288 287 287 288 288 286 284 281 279 278 277 276 275 275 274 273 272 271 268 266 265 263 260 258 256 255 252 250 248 246 244 244 243 241 240 241 242 242 242 243 243 243 242 242 241 241 242 242 242 243 244 244 244 245
344 343 341 340 336 332 330 327 325 324 323 322 321 321 320 318 316 314 312 309 306 304 302 301 300 299 298 295 293 292 291 291 291 292 292 289 287 285 284 282 280 279 278 277 276 275 274 272 271 269 266 264 261 257 255 254 252 249 246 243 242 241 241 240 240 240 241 241 240 240 240 241 241 241 241 241 242 242 242 242 242 242 243 243 243
346 344 343 341 337 333 329 326 324 322 322 322 322 322 322 319 317 315 313 311 309 308 306 303 300 298 295 293 293 294 295 295 295 293 291 289 288 287 286 284 283 281 280 278 277 276 275 273 272 269 265 263 259 256 254 253 250 246 244 241 239 239 239 238 238 239 240 240 239 238 238 238 239 240 241 241 241 240 240 241 241 240 241 242 242
346 345 344 342 339 335 330 328 326 324 324 324 324 324 323 321 317 314 313 312 311 310 307 302 298 296 295 295 297 298 298 298 296 293 292 291 290 289 289 288 286 285 283 281 280 279 278 276 275 271 267 263 259 255 252 250 248 245 243 241 240 239 239 239 238 238 239 238 237 237 237 238 240 241 241 240 240 240 239 240 240 240 241 242 243
346 345 344 342 340 337 333 330 328 326 325 324 324 324 324 322 318 315 314 314 312 310 306 302 299 300 301 301 302 302 301 299 298 298 297 296 295 295 295 293 291 288 287 285 284 283 282 281 278 275 270 264 259 255 251 248 246 244 243 242 241 240 239 239 238 238 237 237 236 236 238 240 240 241 240 240 240 241 241 241 241 241 243 245 247
346 346 345 343 341 339 336 333 330 327 325 324 322 322 323 322 320 318 316 315 313 311 307 305 305 307 308 307 306 304 303 302 303 303 303 301 301 301 299 296 293 291 290 288 287 285 283 281 278 274 269 264 259 254 251 248 246 245 244 243 241 239 238 237 237 237 237 237 235 235 237 239 240 239 239 239 240 242 243 243 243 244 246 247 248
346 346 346 344 343 341 339 337 335 332 330 327 324 324 324 324 322 320 318 316 315 314 312 312 313 313 312 310 308 307 306 306 308 308 306 305 304 302 299 295 292 291 290 288 286 284 281 278 274 270 266 262 258 254 252 249 247 246 244 242 239 237 236 236 237 237 236 235 234 234 236 239 240 240 239 240 241 243 244 245 245 246 247 248 248
347 347 346 345 344 342 340 340 338 336 333 330 328 326 326 325 323 321 319 317 317 318 318 318 317 315 314 312 310 309 309 310 310 309 308 307 304 300 295 292 289 288 286 284 283 281 277 274 270 265 261 258 255 252 250 248 247 245 243 241 237 235 233 233 234 234 233 233 233 234 236 239 241 241 241 242 243 244 245 246 246 246 247 247 248
348 347 347 347 345 343 341 340 339 337 335 332 330 329 328 326 324 322 321 320 322 323 322 319 316 314 313 312 311 311 311 311 311 310 309 307 302 297 292 289 287 285 284 282 281 278 275 271 267 262 257 253 250 248 247 246 244 243 241 239 236 233 231 230 230 231 231 231 232 233 236 238 240 241 241 242 244 245 245 244 245 246 246 246 245
348 348 348 348 346 344 343 342 340 338 336 334 333 332 331 329 327 326 326 326 327 327 323 319 316 315 314 314 314 314 313 312 312 313 311 306 301 296 293 292 290 289 287 284 281 277 272 269 265 262 258 253 248 246 244 243 242 240 239 237 235 233 230 229 230 230 231 232 233 235 237 238 239 240 241 242 244 244 244 243 243 242 241 240 240
348 348 349 349 347 345 344 342 341 339 338 337 336 335 334 332 331 331 332 333 331 327 323 320 320 320 319 319 318 316 315 315 316 315 311 307 303 300 298 297 296 293 290 285 280 275 270 266 262 259 256 253 249 245 242 241 240 239 238 237 236 235 233 231 230 231 232 233 234 235 237 238 239 240 241 242 243 243 241 240 239 239 239 240 242
348 348 349 349 348 346 344 343 342 341 340 340 339 338 336 335 336 337 338 336 331 326 324 325 327 326 324 323 322 319 320 321 320 317 312 308 306 305 303 301 297 294 290 285 280 276 272 267 262 257 254 252 250 247 243 241 239 238 237 238 237 237 236 235 234 234 234 234 235 235 236 237 237 239 239 239 238 238 237 238 239 241 243 245 246
349 349 349 349 349 348 346 346 344 343 343 342 342 341 340 340 341 342 340 335 329 327 329 331 331 330 329 327 325 324 325 325 322 317 313 311 310 308 306 301 297 293 291 288 285 283 279 274 268 260 252 248 246 246 244 242 241 238 237 236 237 238 238 238 237 236 236 235 235 235 235 235 236 237 237 237 237 238 240 242 244 246 247 248 248
350 350 350 349 349 349 348 347 346 345 345 344 343 342 343 343 344 343 339 333 331 332 335 335 334 333 332 331 329 329 328 326 323 319 316 314 313 311 306 301 298 295 295 294 293 290 287 282 276 267 258 249 245 244 244 243 243 241 239 238 237 238 238 239 238 238 238 238 238 238 238 238 238 238 239 240 242 243 245 245 246 247 248 249 249
351 350 351 350 350 349 348 347 347 347 347 346 345 344 345 345 344 341 336 334 336 339 339 338 337 336 335 334 333 332 329 327 325 322 319 316 314 312 308 303 302 303 302 301 298 294 290 287 282 276 270 264 259 257 253 252 251 249 247 244 243 242 242 243 243 242 242 241 241 241 241 240 241 241 242 244 245 244 245 246 247 248 248 248 248
Height
10328 10323 10319 10314 10310 10307 10305 10304 10303 10303 10303 10302 10302 10301 10300 10299 10298 10298 10298 10296 10295 10293 10293 10292 10290 10290 10291 10290 10291 10293 10296 10299 10301 10304 10306 10307 10309 10311 10313 10315 10318 10320 10322 10324 10326 10329 10333 10337 10340 10342 10346 10353 10356 10357 10361 10365 10368 10372 10374 10376 10377 10376 10378 10380 10382 10384 10388 10392 10396 10399 10402 10405 10410 10416 10421 10424 10426 10427 10428 10428 10428 10430 10433 10435 10437
10311 10306 10301 10297 10293 10290 10288 10288 10287 10286 10285 10284 10282 10282 10280 10278 10276 10276 10276 10275 10274 10273 10274 10273 10272 10271 10271 10271 10271 10273 10276 10278 10281 10283 10286 10288 10290 10293 10295 10297 10300 10302 10304 10307 10309 10311 10315 10319 10323 10325 10327 10333 10339 10340 10342 10346 10351 10356 10359 10361 10361 10361 10362 10364 10366 10370 10375 10379 10380 10382 10386 10391 10396 10401 10405 10409 10411 10412 10412 10412 10413 10416 10420 10422 10423
10295 10289 10285 10282 10278 10275 10274 10272 10270 10268 10267 10264 10262 10260 10258 10256 10253 10252 10252 10251 10250 10250 10250 10251 10251 10251 10250 10250 10250 10251 10253 10256 10259 10263 10265 10268 10271 10274 10277 10280 10282 10284 10285 10288 10290 10293 10296 10299 10303 10307 10309 10314 10319 10322 10323 10327 10332 10338 10342 10344 10344 10344 10345 10348 10351 10356 10360 10361 10363 10367 10371 10375 10380 10386 10390 10392 10394 10395 10395 10397 10400 10403 10406 10408 10409
10279 10274 10270 10267 10263 10260 10258 10254 10251 10248 10245 10241 10239 10236 10234 10231 10229 10227 10226 10227 10227 10227 10227 10227 10229 10230 10230 10230 10230 10230 10231 10234 10237 10241 10244 10248 10251 10254 10257 10260 10264 10266 10267 10269 10272 10275 10277 10279 10283 10287 10291 10294 10299 10302 10304 10308 10313 10319 10323 10325 10326 10327 10328 10331 10335 10339 10343 10345 10348 10352 10355 10358 10364 10371 10372 10373 10376 10378 10381 10383 10385 10387 10390 10393 10395
10264 10261 10257 10254 10250 10246 10243 10237 10231 10227 10222 10218 10214 10211 10209 10207 10205 10203 10203 10204 10205 10205 10206 10206 10207 10209 10210 10211 10211 10212 10213 10214 10216 10219 10223 10228 10232 10235 10238 10241 10244 10247 10250 10252 10254 10257 10259 10261 10264 10267 10271 10275 10279 10283 10285 10288 10292 10298 10302 10305 10307 10309 10310 10313 10319 10323 10327 10329 10332 10336 10338 10342 10347 10350 10353 10356 10359 10362 10365 10369 10370 10371 10374 10376 10379
10249 10246 10243 10241 10237 10231 10227 10220 10211 10206 10202 10197 10192 10188 10185 10183 10182 10182 10182 10183 10185 10187 10187 10186 10188 10190 10192 10193 10193 10195 10196 10197 10198 10200 10204 10210 10214 10216 10220 10223 10226 10229 10232 10235 10237 10240 10242 10244 10246 10248 10252 10256 10260 10263 10265 10268 10272 10277 10282 10285 10287 10289 10291 10296 10303 10308 10310 10312 10316 10320 10322 10324 10327 10330 10335 10340 10342 10343 10348 10353 10355 10355 10356 10359 10362
10234 10233 10230 10225 10220 10214 10209 10201 10192 10185 10181 10175 10170 10167 10165 10163 10162 10163 10164 10166 10168 10169 10170 10170 10171 10173 10174 10175 10176 10178 10180 10182 10182 10183 10186 10191 10196 10200 10202 10205 10209 10212 10215 10217 10220 10222 10226 10228 10229 10231 10233 10238 10242 10245 10247 10250 10253 10257 10262 10265 10268 10270 10273 10280 10286 10290 10292 10296 10299 10302 10304 10306 10308 10312 10317 10322 10325 10328 10331 10335 10338 10339 10340 10342 10344
10222 10221 10217 10210 10203 10197 10190 10183 10173 10164 10159 10155 10150 10147 10147 10146 10144 10145 10147 10149 10150 10150 10152 10153 10154 10156 10158 10158 10158 10160 10162 10164 10166 10166 10169 10173 10177 10183 10185 10188 10191 10195 10197 10200 10202 10205 10209 10211 10213 10215 10216 10220 10224 10228 10231 10232 10234 10238 10243 10247 10250 10253 10257 10262 10267 10273 10278 10280 10281 10284 10287 10290 10292 10294 10299 10304 10309 10313 10315 10316 10319 10321 10323 10326 10329
10209 10205 10200 10194 10186 10177 10169 10162 10155 10148 10142 10138 10134 10130 10129 10128 10127 10127 10128 10129 10129 10130 10132 10135 10136 10137 10140 10139 10139 10141 10143 10146 10148 10150 10153 10156 10159 10164 10168 10171 10175 10177 10180 10183 10185 10188 10192 10194 10197 10199 10201 10203 10206 10210 10214 10216 10216 10220 10225 10230 10234 10238 10242 10245 10249 10257 10264 10264 10264 10268 10271 10274 10278 10278 10282 10287 10290 10294 10299 10300 10300 10303 10309 10313 10314
10195 10188 10180 10173 10165 10156 10147 10141 10139 10136 10130 10122 10118 10115 10113 10112 10111 10110 10110 10110 10111 10112 10114 10117 10118 10119 10121 10122 10122 10124 10126 10128 10131 10134 10137 10139 10142 10146 10150 10154 10158 10161 10164 10166 10168 10171 10175 10178 10181 10183 10185 10186 10189 10193 10196 10198 10199 10202 10207 10212 10217 10222 10227 10230 10233 10240 10247 10248 10248 10252 10255 10259 10263 10264 10265 10269 10271 10275 10282 10286 10288 10290 10292 10295 10299
10177 10169 10161 10151 10142 10134 10127 10123 10122 10121 10115 10108 10104 10102 10099 10098 10096 10094 10093 10093 10094 10096 10099 10100 10101 10100 10102 10104 10105 10107 10110 10111 10114 10118 10121 10123 10125 10129 10132 10136 10140 10144 10147 10149 10151 10154 10158 10161 10164 10167 10169 10170 10172 10176 10179 10181 10183 10184 10188 10195 10201 10206 10211 10215 10218 10222 10229 10232 10233 10236 10240 10242 10245 10248 10249 10251 10254 10258 10264 10269 10275 10278 10277 10278 10283
10159 10150 10142 10133 10125 10118 10113 10108 10105 10101 10097 10094 10091 10088 10085 10084 10082 10081 10080 10078 10078 10081 10084 10084 10083 10083 10084 10085 10087 10089 10093 10095 10097 10100 10104 10107 10109 10112 10115 10118 10123 10126 10128 10132 10134 10137 10141 10144 10147 10150 10153 10155 10156 10159 10162 10165 10166 10167 10170 10176 10184 10190 10194 10199 10203 10206 10211 10216 10219 10222 10223 10224 10229 10233 10234 10235 10238 10242 10247 10251 10258 10264 10265 10263 10265
10139 10130 10123 10119 10113 10108 10103 10098 10092 10088 10085 10083 10079 10074 10072 10069 10066 10066 10066 10064 10063 10065 10067 10068 10067 10067 10067 10067 10069 10071 10075 10079 10082 10083 10085 10089 10093 10096 10098 10101 10106 10109 10111 10113 10116 10120 10125 10128 10130 10133 10136 10139 10141 10143 10145 10148 10150 10152 10153 10157 10165 10172 10177 10182 10187 10191 10193 10199 10206 10209 10208 10209 10214 10218 10218 10221 10224 10226 10230 10235 10239 10246 10250 10250 10251
10118 10110 10106 10104 10099 10093 10089 10086 10082 10078 10075 10073 10068 10064 10062 10057 10053 10051 10051 10049 10049 10049 10050 10052 10052 10052 10052 10052 10053 10054 10056 10061 10065 10068 10069 10071 10075 10079 10081 10084 10088 10091 10093 10096 10098 10102 10108 10112 10115 10117 10119 10122 10125 10127 10130 10132 10134 10136 10138 10141 10146 10154 10160 10165 10170 10175 10177 10182 10189 10195 10197 10196 10198 10202 10203 10207 10211 10211 10214 10218 10221 10227 10232 10235 10239
10103 10097 10094 10089 10082 10076 10073 10072 10069 10065 10064 10061 10056 10053 10051 10047 10043 10039 10038 10037 10036 10036 10036 10037 10037 10037 10037 10038 10038 10038 10041 10044 10048 10052 10054 10056 10059 10062 10065 10067 10069 10072 10075 10078 10081 10085 10090 10095 10099 10102 10104 10105 10108 10111 10114 10117 10119 10122 10124 10127 10130 10136 10143 10148 10154 10158 10161 10166 10171 10178 10183 10183 10185 10187 10188 10193 10197 10197 10199 10202 10204 10209 10213 10218 10223
10096 10090 10085 10077 10068 10063 10060 10058 10056 10053 10051 10048 10043 10041 10038 10035 10032 10029 10026 10025 10024 10024 10024 10024 10023 10023 10024 10024 10025 10025 10026 10029 10031 10035 10038 10041 10044 10046 10049 10051 10052 10054 10057 10060 10063 10067 10073 10078 10083 10087 10089 10091 10094 10096 10098 10101 10104 10107 10111 10114 10117 10120 10126 10132 10137 10141 10145 10150 10154 10159 10166 10171 10174 10173 10173 10178 10182 10183 10184 10186 10188 10191 10195 10200 10204
10087 10080 10074 10066 10058 10054 10050 10047 10045 10042 10040 10036 10031 10029 10026 10023 10021 10018 10016 10015 10014 10013 10013 10013 10012 10012 10012 10011 10012 10012 10013 10015 10017 10019 10022 10025 10029 10032 10035 10037 10038 10040 10042 10045 10048 10051 10056 10061 10066 10071 10074 10077 10080 10082 10084 10087 10089 10092 10096 10100 10103 10106 10110 10116 10121 10125 10130 10133 10136 10141 10148 10156 10160 10160 10159 10162 10166 10168 10169 10170 10172 10175 10178 10182 10187
10074 10067 10061 10054 10048 10044 10041 10038 10035 10033 10029 10025 10021 10018 10015 10013 10010 10007 10005 10005 10004 10003 10002 10002 10001 10001 10001 10000 10000 10001 10002 10004 10005 10006 10007 10009 10013 10018 10022 10024 10026 10027 10029 10031 10034 10037 10040 10045 10050 10054 10058 10061 10065 10067 10070 10073 10075 10077 10081 10084 10087 10089 10093 10099 10105 10109 10114 10117 10119 10124 10131 10139 10144 10146 10146 10147 10150 10152 10154 10155 10157 10159 10162 10166 10171
10062 10056 10049 10042 10036 10033 10031 10028 10025 10023 10019 10015 10011 10007 10005 10002 10000 9998 9995 9994 9994 9994 9993 9992 9991 9991 9990 9990 9991 9992 9992 9994 9995 9995 9996 9996 9998 10003 10008 10011 10013 10014 10017 10018 10020 10022 10025 10029 10034 10038 10042 10046 10050 10053 10056 10058 10061 10064 10067 10069 10071 10072 10075 10081 10087 10092 10097 10101 10103 10108 10114 10122 10127 10128 10130 10133 10135 10137 10138 10140 10143 10144 10147 10151 10154
10049 10044 10038 10031 10024 10022 10021 10018 10016 10012 10009 10005 10001 9997 9995 9992 9990 9988 9986 9985 9985 9984 9984 9983 9982 9981 9980 9980 9981 9982 9983 9984 9985 9985 9986 9986 9986 9989 9993 9997 10000 10002 10004 10006 10007 10009 10012 10015 10018 10022 10026 10030 10034 10037 10040 10042 10045 10049 10052 10054 10057 10058 10060 10065 10070 10075 10081 10085 10088 10093 10098 10104 10109 10111 10114 10118 10120 10121 10122 10125 10128 10130 10133 10137 10139
10036 10031 10027 10021 10013 10009 10009 10008 10007 10004 10000 9997 9993 9989 9985 9983 9981 9979 9977 9976 9975 9974 9974 9973 9973 9973 9972 9972 9972 9973 9973 9974 9974 9975 9976 9977 9977 9978 9981 9984 9987 9989 9992 9994 9996 9997 9999 10002 10005 10008 10011 10014 10018 10021 10023 10026 10029 10033 10036 10038 10041 10043 10047 10051 10055 10059 10066 10070 10073 10077 10081 10086 10091 10094 10098 10101 10104 10105 10107 10110 10113 10116 10120 10123 10125
10028 10022 10018 10013 10005 10000 9997 9996 9996 9995 9991 9988 9984 9980 9977 9974 9973 9971 9969 9967 9966 9965 9965 9964 9964 9964 9964 9964 9963 9963 9963 9964 9964 9965 9966 9967 9968 9968 9970 9972 9974 9976 9979 9981 9984 9986 9988 9990 9993 9995 9997 10000 10003 10006 10009 10012 10015 10019 10021 10024 10027 10030 10034 10038 10042 10046 10052 10057 10058 10060 10065 10070 10075 10078 10081 10085 10088 10090 10092 10095 10099 10103 10107 10109 10111
10022 10015 10010 10006 10001 9995 9990 9987 9985 9984 9981 9978 9975 9971 9968 9966 9965 9964 9961 9959 9958 9957 9955 9955 9955 9954 9954 9954 9954 9954 9954 9954 9955 9955 9956 9957 9957 9958 9959 9961 9962 9965 9967 9969 9971 9974 9977 9979 9981 9983 9984 9987 9989 9992 9995 9998 10002 10004 10007 10010 10013 10016 10020 10024 10029 10033 10038 10041 10042 10044 10050 10056 10059 10062 10066 10070 10073 10075 10077 10080 10085 10090 10093 10095 10096
10016 10010 10004 9999 9994 9990 9985 9981 9978 9975 9972 9969 9965 9962 9959 9958 9957 9956 9954 9952 9951 9950 9947 9946 9945 9945 9945 9945 9944 9944 9944 9945 9945 9946 9947 9947 9948 9949 9949 9950 9951 9953 9955 9957 9959 9961 9964 9966 9968 9970 9972 9975 9977 9980 9983 9985 9988 9991 9993 9996 9999 10002 10005 10009 10014 10019 10022 10025 10026 10029 10035 10040 10043 10046 10050 10055 10059 10061 10063 10066 10070 10075 10078 10080 10081
10011 10005 9999 9993 9988 9984 9980 9976 9972 9969 9965 9961 9957 9953 9950 9949 9949 9948 9947 9945 9943 9941 9939 9938 9937 9937 9936 9935 9935 9935 9935 9935 9936 9937 9938 9938 9939 9939 9940 9941 9941 9942 9944 9946 9947 9949 9951 9953 9956 9958 9961 9963 9966 9968 9971 9974 9976 9978 9980 9983 9986 9990 9993 9997 10001 10005 10008 10010 10011 10015 10021 10024 10027 10031 10036 10040 10043 10045 10047 10050 10055 10059 10061 10063 10065
10007 10000 9994 9988 9983 9978 9974 9970 9966 9963 9959 9956 9952 9947 9944 9941 9941 9941 9939 9937 9936 9934 9931 9930 9929 9928 9928 9927 9927 9926 9926 9926 9927 9927 9928 9929 9929 9930 9932 9933 9934 9934 9935 9936 9937 9939 9941 9942 9944 9947 9949 9950 9953 9956 9960 9962 9965 9967 9968 9970 9974 9978 9982 9986 9989 9993 9995 9997 9999 10003 10007 10010 10013 10019 10023 10025 10026 10029 10031 10035 10040 10043 10044 10047 10051
10002 9995 9989 9983 9977 9972 9968 9963 9959 9956 9953 9950 9946 9942 9938 9935 9933 9933 9932 9930 9928 9926 9924 9923 9921 9920 9920 9920 9919 9919 9918 9918 9918 9918 9918 9919 9920 9922 9923 9925 9926 9927 9927 9928 9929 9930 9931 9933 9934 9936 9937 9939 9942 9945 9948 9951 9953 9955 9957 9959 9963 9967 9971 9974 9978 9980 9982 9984 9987 9991 9995 9998 10001 10007 10010 10010 10011 10015 10018 10020 10024 10028 10031 10034 10038
9994 9989 9983 9976 9971 9966 9961 9957 9953 9949 9946 9944 9940 9937 9934 9930 9927 9925 9924 9923 9921 9919 9918 9917 9915 9914 9913 9912 9911 9911 9911 9910 9910 9910 9910 9911 9912 9913 9914 9915 9917 9918 9918 9919 9921 9922 9923 9924 9925 9926 9927 9930 9933 9935 9937 9938 9940 9943 9945 9948 9952 9955 9959 9962 9965 9968 9969 9970 9974 9978 9981 9985 9988 9992 9996 9996 9998 10002 10005 10006 10010 10015 10019 10022 10025
9988 9981 9975 9970 9964 9959 9954 9949 9945 9942 9939 9936 9934 9931 9928 9926 9922 9919 9917 9916 9914 9912 9911 9911 9909 9909 9907 9906 9905 9904 9903 9902 9902 9902 9902 9902 9903 9904 9905 9906 9907 9909 9909 9910 9911 9912 9913 9914 9915 9916 9918 9921 9924 9925 9925 9927 9929 9932 9934 9938 9940 9943 9946 9949 9952 9955 9956 9957 9960 9964 9968 9971 9973 9977 9981 9983 9986 9990 9992 9994 9998 10003 10007 10010 10012
9983 9977 9970 9964 9959 9954 9949 9944 9940 9935 9932 9929 9927 9925 9922 9919 9917 9914 9911 9909 9907 9905 9905 9904 9903 9903 9902 9901 9900 9898 9897 9896 9895 9895 9895 9895 9896 9897 9897 9898 9898 9899 9900 9901 9902 9903 9903 9904 9905 9907 9910 9913 9914 9915 9915 9917 9920 9922 9924 9927 9930 9931 9934 9937 9940 9943 9944 9945 9947 9952 9955 9957 9960 9964 9969 9973 9976 9978 9980 9983 9987 9991 9995 9997 9999
9979 9973 9966 9960 9955 9950 9946 9942 9938 9933 9928 9925 9922 9919 9916 9914 9911 9908 9905 9903 9901 9899 9898 9897 9897 9897 9896 9895 9894 9893 9892 9891 9891 9891 9891 9890 9890 9890 9890 9890 9890 9890 9891 9892 9893 9894 9894 9895 9896 9898 9901 9904 9905 9905 9906 9908 9911 9914 9916 9919 9921 9922 9923 9926 9930 9932 9934 9934 9936 9941 9944 9946 9949 9954 9959 9963 9965 9966 9969 9972 9975 9979 9982 9984 9987
9974 9968 9963 9957 9952 9947 9942 9938 9934 9930 9925 9922 9918 9914 9911 9909 9906 9903 9900 9897 9895 9892 9891 9890 9890 9890 9889 9888 9887 9886 9885 9885 9886 9886 9887 9886 9885 9885 9884 9884 9884 9884 9884 9885 9885 9885 9886 9887 9888 9889 9891 9893 9894 9895 9897 9900 9903 9905 9908 9910 9912 9913 9915 9917 9919 9922 9923 9924 9927 9931 9934 9936 9939 9943 9948 9952 9955 9957 9959 9962 9965 9967 9970 9973 9977
9970 9964 9958 9953 9947 9942 9937 9932 9928 9924 9921 9917 9914 9910 9906 9904 9900 9898 9896 9894 9891 9888 9886 9884 9883 9882 9881 9880 9879 9878 9878 9878 9879 9880 9880 9880 9879 9879 9878 9877 9878 9878 9878 9878 9878 9878 9878 9878 9879 9880 9882 9883 9884 9885 9888 9892 9894 9896 9898 9901 9904 9905 9907 9909 9910 9911 9913 9916 9918 9921 9924 9927 9930 9934 9938 9942 9945 9947 9949 9952 9954 9957 9960 9964 9968
9964 9959 9953 9946 9940 9935 9930 9926 9923 9919 9915 9912 9909 9906 9902 9900 9896 9892 9890 9889 9886 9884 9882 9879 9877 9875 9874 9873 9871 9871 9870 9871 9872 9872 9872 9872 9871 9871 9871 9871 9871 9871 9871 9871 9871 9871 9871 9871 9872 9873 9874 9875 9876 9877 9880 9883 9884 9886 9889 9892 9895 9897 9897 9899 9901 9903 9905 9907 9908 9910 9914 9918 9921 9925 9929 9932 9934 9936 9939 9942 9944 9947 9951 9955 9958
9959 9953 9947 9941 9935 9929 9924 9920 9917 9914 9911 9907 9905 9902 9899 9896 9893 9889 9886 9884 9881 9879 9877 9874 9872 9870 9868 9866 9865 9864 9864 9865 9865 9865 9865 9864 9864 9864 9864 9864 9864 9863 9863 9863 9864 9864 9864 9864 9865 9866 9867 9868 9869 9870 9873 9874 9875 9877 9879 9882 9886 9887 9886 9888 9892 9894 9895 9897 9898 9901 9905 9910 9913 9916 9919 9921 9923 9926 9929 9933 9936 9940 9944 9947 9949
9957 9950 9944 9938 9932 9926 9921 9916 9912 9909 9906 9903 9900 9898 9894 9891 9889 9886 9883 9880 9877 9875 9872 9869 9867 9865 9863 9861 9860 9859 9859 9859 9858 9858 9858 9858 9858 9858 9857 9857 9856 9856 9856 9856 9856 9857 9857 9857 9859 9859 9860 9861 9862 9864 9866 9866 9867 9869 9872 9874 9876 9877 9877 9878 9883 9885 9885 9887 9890 9893 9897 9900 9903 9907 9909 9911 9914 9917 9920 9925 9929 9932 9936 9939 9941
9954 9947 9941 9936 9930 9925 9919 9914 9910 9906 9903 9899 9896 9893 9890 9886 9884 9881 9878 9876 9874 9871 9868 9866 9863 9861 9859 9857 9855 9854 9853 9853 9852 9852 9852 9851 9851 9851 9850 9850 9849 9849 9849 9849 9850 9850 9850 9850 9851 9852 9853 9854 9855 9857 9858 9859 9860 9863 9865 9867 9868 9868 9868 9870 9874 9876 9877 9880 9883 9885 9888 9891 9894 9897 9899 9901 9905 9909 9913 9918 9922 9925 9928 9930 9931
9953 9945 9939 9933 9927 9922 9917 9912 9907 9903 9900 9896 9893 9889 9886 9882 9879 9876 9873 9871 9869 9867 9865 9863 9860 9857 9855 9853 9851 9849 9848 9848 9848 9847 9846 9845 9845 9844 9844 9844 9844 9844 9844 9843 9843 9843 9843 9844 9844 9845 9846 9847 9848 9850 9851 9852 9854 9857 9858 9860 9860 9860 9861 9864 9867 9869 9870 9873 9876 9878 9881 9884 9886 9888 9891 9894 9899 9903 9907 9911 9913 9916 9918 9920 9922
9948 9943 9937 9932 9926 9920 9914 9909 9904 9900 9896 9893 9889 9886 9883 9879 9875 9872 9869 9867 9865 9863 9861 9858 9856 9853 9850 9848 9846 9845 9844 9843 9843 9842 9841 9840 9839 9839 9838 9838 9838 9838 9838 9837 9837 9837 9837 9838 9838 9838 9839 9840 9841 9843 9845 9846 9848 9850 9852 9852 9852 9852 9855 9858 9860 9863 9865 9867 9870 9872 9874 9876 9878 9881 9885 9888 9893 9897 9899 9901 9904 9907 9909 9911 9914
9943 9938 9933 9929 9924 9919 9912 9906 9901 9895 9891 9887 9884 9881 9878 9875 9871 9868 9866 9863 9861 9859 9856 9854 9851 9848 9845 9843 9842 9840 9839 9838 9837 9836 9835 9835 9834 9833 9833 9833 9832 9832 9831 9831 9831 9831 9831 9832 9832 9832 9833 9834 9835 9837 9838 9840 9842 9844 9844 9845 9845 9848 9850 9853 9855 9857 9859 9861 9864 9866 9868 9870 9872 9876 9880 9883 9886 9888 9891 9893 9896 9899 9901 9903 9907
9938 9934 9929 9923 9919 9915 9910 9904 9898 9892 9887 9882 9879 9876 9874 9871 9867 9864 9861 9859 9857 9855 9852 9849 9846 9844 9842 9840 9838 9836 9835 9833 9832 9831 9830 9829 9828 9828 9827 9826 9826 9825 9825 9825 9825 9825 9825 9825 9826 9826 9827 9829 9830 9831 9833 9834 9836 9837 9838 9839 9841 9844 9846 9848 9850 9852 9853 9856 9858 9860 9862 9865 9868 9871 9875 9878 9878 9879 9883 9887 9889 9891 9894 9898 9902
9934 9929 9924 9919 9914 9910 9905 9901 9896 9890 9885 9880 9875 9872 9870 9867 9863 9860 9857 9855 9853 9850 9848 9845 9842 9840 9838 9836 9834 9832 9830 9829 9827 9826 9825 9824 9823 9822 9822 9821 9820 9819 9819 9819 9819 9819 9820 9820 9821 9822 9823 9824 9825 9826 9828 9829 9830 9831 9833 9835 9837 9839 9841 9842 9844 9846 9848 9851 9853 9855 9856 9859 9862 9865 9868 9871 9871 9873 9877 9880 9882 9885 9889 9892 9895
9932 9925 9920 9915 9910 9905 9900 9896 9891 9887 9882 9877 9872 9868 9866 9863 9860 9856 9853 9850 9848 9846 9844 9841 9838 9836 9834 9832 9830 9828 9826 9825 9824 9822 9821 9820 9819 9818 9817 9816 9815 9815 9814 9814 9815 9815 9816 9816 9817 9817 9818 9819 9821 9822 9823 9825 9826 9827 9828 9830 9832 9834 9835 9837 9838 9841 9843 9846 9848 9849 9850 9852 9856 9859 9862 9864 9866 9868 9871 9874 9876 9880 9882 9884 9886
9930 9923 9918 9912 9906 9901 9897 9892 9888 9883 9878 9874 9869 9865 9862 9859 9855 9852 9849 9846 9844 9842 9840 9837 9834 9832 9830 9828 9826 9825 9823 9822 9820 9819 9817 9816 9815 9814 9813 9812 9811 9811 9811 9811 9811 9811 9811 9812 9813 9813 9814 9815 9816 9818 9819 9820 9821 9823 9824 9826 9827 9829 9831 9832 9834 9835 9837 9839 9842 9844 9845 9847 9850 9854 9857 9859 9860 9863 9866 9869 9872 9874 9876 9878 9880
9927 9921 9916 9910 9904 9899 9893 9889 9884 9880 9875 9871 9866 9862 9859 9855 9851 9849 9846 9843 9841 9839 9837 9834 9831 9829 9827 9825 9823 9821 9820 9819 9817 9816 9814 9813 9812 9811 9810 9809 9808 9808 9808 9808 9808 9808 9808 9808 9809 9809 9811 9812 9812 9813 9814 9816 9817 9818 9819 9821 9823 9825 9826 9827 9829 9830 9832 9834 9836 9839 9841 9843 9846 9849 9852 9854 9855 9859 9862 9865 9867 9869 9870 9872 9873
9924 9918 9912 9907 9901 9896 9891 9886 9881 9877 9872 9868 9863 9859 9855 9851 9848 9845 9843 9840 9838 9836 9833 9831 9829 9826 9824 9822 9820 9819 9817 9815 9814 9812 9811 9810 9809 9807 9806 9805 9805 9805 9805 9805 9805 9805 9805 9805 9805 9806 9807 9807 9808 9809 9810 9811 9812 9814 9815 9816 9818 9820 9821 9823 9824 9826 9828 9830 9832 9835 9837 9840 9843 9845 9847 9849 9851 9854 9857 9859 9861 9862 9863 9864 9865
9921 9915 9909 9904 9899 9893 9888 9883 9878 9874 9869 9865 9860 9856 9852 9848 9845 9843 9840 9838 9835 9832 9830 9828 9826 9824 9822 9820 9818 9816 9814 9813 9811 9809 9808 9807 9806 9805 9803 9802 9802 9801 9802 9802 9802 9802 9802 9802 9802 9803 9803 9804 9804 9805 9806 9807 9808 9809 9810 9812 9813 9815 9817 9819 9820 9822 9824 9826 9829 9831 9834 9836 9839 9840 9842 9844 9847 9850 9851 9853 9854 9854 9855 9857 9860
9919 9913 9907 9901 9896 9891 9886 9881 9876 9871 9866 9862 9858 9853 9849 9846 9843 9841 9838 9835 9832 9829 9828 9826 9824 9821 9819 9817 9815 9813 9812 9810 9808 9807 9806 9804 9803 9802 9801 9800 9799 9799 9799 9799 9799 9798 9799 9799 9799 9800 9800 9801 9801 9802 9802 9803 9804 9805 9806 9807 9809 9811 9812 9814 9816 9818 9820 9823 9825 9827 9829 9831 9833 9835 9837 9839 9842 9843 9844 9845 9846 9848 9851 9853 9856
9917 9911 9905 9900 9894 9889 9884 9879 9874 9869 9864 9860 9855 9851 9847 9844 9841 9838 9835 9832 9829 9827 9825 9823 9821 9819 9817 9815 9813 9811 9809 9808 9806 9805 9804 9802 9801 9800 9799 9798 9798 9798 9797 9796 9796 9796 9796 9796 9796 9797 9797 9798 9798 9798 9799 9800 9800 9801 9803 9804 9805 9807 9809 9810 9812 9814 9816 9818 9820 9822 9824 9826 9828 9830 9832 9834 9835 9837 9838 9840 9842 9844 9847 9848 9850
9912 9907 9902 9897 9892 9886 9881 9877 9872 9868 9863 9859 9854 9850 9846 9842 9839 9836 9833 9830 9827 9825 9823 9821 9819 9817 9815 9813 9811 9809 9807 9806 9805 9803 9802 9801 9800 9799 9798 9797 9797 9796 9795 9794 9794 9793 9793 9793 9793 9794 9794 9794 9795 9795 9796 9797 9798 9798 9799 9801 9802 9804 9805 9807 9809 9811 9812 9814 9816 9818 9820 9822 9824 9826 9827 9829 9831 9833 9835 9837 9838 9840 9842 9844 9846
9909 9903 9898 9893 9888 9883 9878 9874 9870 9866 9862 9858 9853 9849 9845 9840 9837 9834 9830 9828 9826 9824 9822 9819 9817 9815 9813 9811 9809 9808 9806 9805 9803 9802 9801 9800 9799 9798 9797 9796 9795 9795 9794 9793 9792 9792 9791 9791 9791 9791 9792 9792 9792 9792 9793 9794 9795 9796 9797 9798 9799 9801 9802 9804 9806 9808 9810 9811 9813 9815 9817 9818 9820 9822 9824 9826 9828 9830 9831 9833 9834 9836 9839 9841 9843